www.pogodaiklimat.ru

Погода и климат >> Архив погоды >> Россия >> Крым >> Клепинино


ПОГОДА в Клепинино

  • Прогноз погоды в Клепинино
  • Монитор погоды в Клепинино
  • Климат города

АРХИВ ПОГОДЫ в Клепинино

Время (UTC), дата Ветер
(напр.,м/с)
 
Видим.   Явления Облачность Т
(С)
Тd
(С)
f
(%)
Тe
(С)
Тes
(С)
Комфортность P
(гПа)
Po
(гПа)
Тmin
(С)
Tmax
(С)
R
(мм)
R24
(мм)
S
(см)
00 14.02 В 1 н/о {ливн. осадки} 10/10 600 м
[Cb cap]
0.0 -0.9 94 -2 -2 1019.7 1015.0
03 14.02 ЮВ 3 н/о слабый ливневой снег 10/10 600 м
[Cb cap]
-0.4 -1.1 95 -5 -5 1019.7 1015.0 -0.4 0.0
06 14.02 В 3 20 км {ливн. осадки} 10/10 600 м
[Sc]
0.0 -0.6 96 -5 -5 1020.2 1015.5 -0.5 0.0 <0.5
09 14.02 ЮВ 5-10
{11}
20 км 10/3 600 м
[Sc Ci]
+2.6 -0.1 82 -3 -1 1019.7 1015.1
12 14.02 В 5-10
{12}
10 км 10/10 600 м
[Sc]
+2.4 +0.8 89 -3 -3 1018.5 1013.9
15 14.02 В 5-10
{11}
10 км 10/10 600 м
[Sc]
+3.2 +1.7 90 -2 -2 1017.8 1013.2 0.0
18 14.02 В 5
{10}
н/о ясно +2.5 +1.7 94 -3 -3 1017.8 1013.2 +3.7
21 14.02 В 5
{11}
н/о 9/9 600 м
[Sc]
+3.0 +2.0 93 -2 -2 1018.0 1013.4
00 15.02 В 5
{11}
н/о 9/9 600 м
[Sc]
+3.0 +2.0 93 -2 -2 1018.0 1013.4
03 15.02 В 5
{10}
н/о 9/9 600 м
[Sc]
+2.2 +1.7 96 -4 -4 1018.0 1013.4 +2.1
06 15.02 В 5 500 м слабый ливневой дождь {туман} туман 10/10 600 м
[]
+2.3 -2.3 72 -3 -3 1019.4 1014.8 +2.0 0.7
09 15.02 В 3 10 км {ливн. осадки, туман} 10/10 600 м
[]
+5.5 +5.3 99 +2 +2 1020.6 1016.3
12 15.02 В 3 20 км {ливн. осадки, туман} 6/6 600 м
[Sc]
+10.1 +6.9 81 +8 +9 1020.8 1016.3
15 15.02 В 4 20 км {ливн. осадки} 8/8 600 м
[Cb cap]
+4.7 +3.7 93 0 0 1022.2 1017.6 0.7
18 15.02 ЮВ 2 н/о дымка {ливн. осадки} 10/10 300 м
[St]
+3.4 +2.7 95 0 0 1023.8 1019.2 +10.4 0.0
21 15.02 СВ 1 н/о туман ?/? +3.1 +3.1 100 +1 +1 1024.6 1020.0
00 16.02 ЮВ 2 н/о туман ?/? +3.3 +3.3 100 0 0 1025.2 1020.6
03 16.02 В 2 н/о туман ?/? +2.7 +2.7 100 -1 -1 1025.8 1021.1 +2.6 0.1
06 16.02 ЮВ 3 200 м туман ?/? +2.3 +2.3 100 -2 -2 1026.3 1021.6 +1.8 0.1
09 16.02 ЮВ 3 200 м туман ?/? +3.2 +3.2 100 -1 -1 1026.3 1021.7
12 16.02 В 4 10 км {туман} 10/10 600 м
[Sc]
+4.9 +4.4 97 +1 +1 1025.3 1020.7
15 16.02 В 3 200 м туман ?/? +3.1 +3.1 100 -1 -1 1025.3 1020.7
18 16.02 В 3 н/о туман ?/? +0.9 +0.9 100 -4 -4 1025.9 1021.2 +5.6
21 16.02 В 4 н/о туман ?/? +0.6 +0.6 100 -5 -5 1025.5 1020.8
00 17.02 В 2 н/о туман ?/? +0.6 +0.6 100 -3 -3 1024.5 1019.8
03 17.02 В 1 н/о туман ?/? +0.4 +0.4 100 -2 -2 1024.0 1019.3 +0.3 0.1
06 17.02 ЮВ 3 4000 м в посл. час туман 10/10 600 м
[Sc]
+0.8 +0.5 98 -4 -4 1023.7 1019.0 +0.4 0.1
09 17.02 В 2 10 км слабый ливневой дождь {туман} 10/10 600 м
[Cb cap]
+1.3 +0.8 96 -2 -2 1023.6 1018.9
12 17.02 СВ 1 10 км слабый ливневой снег {туман} 10/10 600 м
[Cb cap]
+1.0 +0.7 98 -1 -1 1023.0 1018.3
15 17.02 С 2 20 км {ливн. осадки} 10/10 600 м
[Cb cap]
+1.3 -0.1 90 -2 -2 1023.2 1018.5 2
18 17.02 З 1 н/о {ливн. осадки} 10/10 600 м
[Sc]
+1.5 +0.4 92 -0 -0 1023.5 1018.8 +1.7 2
21 17.02 З 1 н/о 10/10 600 м
[Sc]
+1.5 +0.7 94 -0 -0 1023.2 1018.5
00 18.02 СЗ 3 н/о 10/10 600 м
[Sc]
+2.3 +1.8 96 -2 -2 1023.0 1018.4
03 18.02 СЗ 2 н/о 10/10 600 м
[Sc]
+1.3 +0.2 92 -2 -2 1023.1 1018.4 +1.3
06 18.02 С 1 4000 м дымка 9/9 600 м
[Sc]
-0.4 -1.3 94 -3 -2 1023.9 1019.2 -0.9
09 18.02 штиль 0 10 км 9/9 600 м
[Sc]
+2.6 -2.6 69 +2 +3 1023.5 1018.9
12 18.02 С 1 20 км 9/9 600 м
[Sc]
+3.6 -4.9 54 +3 +3 1022.7 1018.1
15 18.02 С 2 20 км 9/9 600 м
[Sc]
+3.0 -3.5 62 0 0 1022.6 1018.0
18 18.02 СВ 1 н/о 10/10 600 м
[Sc]
+2.1 -0.7 82 +1 +1 1023.0 1018.4 +4.8
21 18.02 штиль 0 н/о 10/10 600 м
[Sc]
+1.5 +0.1 90 0 0 1022.8 1018.1
00 19.02 С 1 н/о 10/10 600 м
[Sc]
+1.0 -0.1 92 -1 -1 1022.6 1017.9
03 19.02 штиль 0 н/о 8/8 600 м
[Sc]
+0.5 -0.3 94 -1 -1 1022.5 1017.8 +0.4
06 19.02 штиль 0 4000 м дымка 10/0
[Ac cast Ci]
+0.1 -1.1 92 -1 0 1023.2 1018.5 -1.0
09 19.02 СВ 3 20 км 9/4 600 м
[Cu Sc Ac trans Ci sp]
+4.1 -0.4 72 +1 +3 1023.6 1019.0
12 19.02 С 3 20 км 10/4 600 м
[Cu med, cong Ac cast Ci sp]
+5.6 -3.9 50 +3 +4 1023.1 1018.5
15 19.02 СВ 2 20 км 10/1 600 м
[Sc Cs]
+4.5 -1.8 64 +2 +2 1023.1 1018.5
18 19.02 штиль 0 н/о ясно +0.7 -1.3 86 -0 -0 1023.7 1019.0 +6.2
21 19.02 СВ 1 н/о 10/0
[Cs]
-0.5 -1.4 94 -3 -3 1023.6 1018.9
00 20.02 СВ 2 н/о 10/0
[Cs]
-0.7 -1.9 92 -5 -5 1023.6 1018.9
03 20.02 СВ 2 н/о 9/9 600 м
[Sc]
-1.4 -2.3 94 -5 -5 1023.6 1018.9 -1.4
06 20.02 СВ 3 10 км 10/10 600 м
[Sc]
-1.8 -3.3 89 -7 -7 1024.3 1019.6 -2.0
09 20.02 В 4 20 км 10/5 600 м
[Sc Ci sp]
+1.6 -3.8 67 -3 -1 1024.2 1019.5
12 20.02 В 4 20 км 7 баллов +1.8 -3.9 66 -3 -2 1024.7 1020.0
15 20.02 В 3 20 км 10 баллов +0.5 -5.5 64 -4 -4 1023.4 1018.7
18 20.02 В 2 н/о ясно -2.6 -4.9 84 -7 -7 1024.8 1020.0 +2.4
21 20.02 В 1 н/о ясно -4.2 -5.7 89 -7 -7 1023.5 1018.7

 

Местоположение метеостанции Клепинино (Крым, Россия): широта 45.53 долгота 34.18 высота над уровнем моря 37 м.

В архиве по умолчанию представлена погода в Клепинино за последнюю неделю. Архивные данные за месяц целиком и за предыдущие месяцы, начиная с января 2011 года, Вы можете получить, выбрав интересующий диапазон дат из раскрывающегося списка и нажав кнопку "Ввод!".

Внимание! Время в таблицах - всемирное. Для получения местного времени необходимо прибавить поправку, которая в Клепинино равна 3 ч.

Смотрите также архив погоды в соседних городах и на ближайших метеорологических станциях:

Погода в Джанкое (Крым, Россия) (27 км)
Погода в Стрелковом (Херсонская область, Украина) (29 км)
Погода в Нижнегорском (Крым, Россия) (44 км)
Погода в Ишуни (Крым, Россия) (52 км)
Погода в Симферополе (Крым, Россия) (58 км)
Погода в Раздольном (Крым, Россия) (61 км)
Погода в Белогорске (Крым, Россия) (63 км)
Погода в Симферополе город (Крым, Россия) (65 км)
Погода в Евпатории (Крым, Россия) (74 км)
Погода в Почтовом (Крым, Россия) (80 км)

Пояснения к столбцам:

Ветер - указаны скорость ветра в м/с - средняя за 10 мин, порывы в срок и между сроками (в фигурных скобках) и направление, откуда дует ветер: С - северный, СВ - северо-восточный, В - восточный, ЮВ - юго-восточный, Ю - южный, ЮЗ - юго-западный, З - западный, СЗ - северо-западный.
Видимость - горизонтальная дальность видимости в метрах или километрах. При видимости от 1 до 10 км при отсутствии осадков обычно наблюдается дымка, при ухудшении видимости до 1 км и менее - туман. В сухую погоду видимость может ухудшаться дымом, пылью или мглою.
Явления - указаны атмосферные явления, наблюдавшиеся в срок или в последний час перед сроком; фигурными скобками обозначены явления, наблюдавшиеся между сроками (за 1-3 часа до срока); квадратными скобками обозначены град или гололедные отложения с указанием их диаметра в мм.
Облачность - указаны через наклонную черту общая и нижняя облачность в баллах и высота нижней границы облаков в метрах; квадратными скобками обозначены формы облаков: Ci - перистые, Cs - перисто-слоистые, Cc - перисто-кучевые, Ac - высококучевые, As - высокослоистые, Sc - слоисто-кучевые, Ns - слоисто-дождевые, Cu - кучевые, Cb - кучево-дождевые. Подробнее классификацию облаков см. в Атласе облаков (PDF).
T - Температура воздуха - температура, измеренная на высоте 2 м над землей.
Td - Температура точки росы - температура, при понижении до которой содержащийся в воздухе водяной пар достигнет насыщения.
f - Относительная влажность воздуха - влажноcть воздуха, измеренная на высоте 2 м над землей.
Te - Эффективная температура - температура, которую ощущает одетый по сезону человек в тени. Характеристика душности погоды. При расчете учитывается влияние влажности воздуха и скорости ветра на теплоощущения человека.
Tes - Эффективная температура на солнце - температура, которую ощущает человек, с поправкой на солнечный нагрев. Характеристика знойности погоды. Зависит от высоты солнца над горизонтом, облачности и скорости ветра. Ночью, в пасмурную погоду, а также при ветре 12 м/с и более поправка равна нулю.
P - Атмосферное давление - приведенное к уровню моря атмосферное давление.
Po - Атмосферное давление - измеренное на уровне метеостанции атмосферное давление.
Tmin - Минимальная температура - минимум температуры воздуха на высоте 2 м над землей.
Tmax - Максимальная температура - максимум температуры воздуха на высоте 2 м над землей.
R - Количество осадков - Количество выпавших осадков за период времени, мм. При наведении курсора мыши на число - период времени, за который выпало указанное количество осадков.
R24 - Количество осадков - Количество выпавших осадков за 24 часа, мм.
S - Снежный покров - Высота снежного покрова, см. При наведении курсора мыши на число - состояние снежного покрова и степень покрытия местности в баллах.